Weather History for Seattle Boeing, WA

Change the Weather History Date:

Wednesday, January 2, 2013

  Actual Average Record
Temperature  
Mean Temperature 37 °F -  
Max Temperature 46 °F 42 °F 57 °F (2003)
Min Temperature 28 °F 33 °F 6 °F (1950)
Degree Days  
Heating Degree Days 28    
Moisture  
Dew Point 24 °F    
Average Humidity 64    
Maximum Humidity 89    
Minimum Humidity 41    
Precipitation  
Precipitation 0.00 in - - ()
Sea Level Pressure  
Sea Level Pressure 30.27 in    
Wind  
Wind Speed 2 mph (SE)    
Max Wind Speed 10 mph    
Max Gust Speed -    
Visibility 10 miles    
Events      
Averages and records for this station are not official NWS values.
T = Trace of Precipitation, MM = Missing Value Source: NWS Daily Summary

Daily Weather History Graph

Daily Weather History Graph

Search for Another Location

Airport:

Trip Planner

Search our weather history database for the weather conditions in past years. The results will help you decide how hot, cold, wet, or windy it might be!

Date:

Astronomy

Jan. 02, 2013 Rise Set
Actual Time 7:57 AM PST 4:30 PM PST
Civil Twilight 7:21 AM PST 5:05 PM PST
Nautical Twilight 6:42 AM PST 5:44 PM PST
Astronomical Twilight 6:05 AM PST 6:22 PM PST
Moon 10:34 PM PST (1/2) 10:17 AM PST (1/2)
Length of Visible Light 9h 44m
Length of Day
8h 33m
Waning Gibbous, 74% of the Moon is Illuminated
Jan 2
Waning Gibbous
Jan 4
Last Quarter
Jan 11
New
Jan 18
First Quarter
Jan 26
Full

Hourly Weather History & Observations

Time (PST) Temp. Windchill Dew Point Humidity Pressure Visibility Wind Dir Wind Speed Gust Speed Precip Events Conditions
12:53 AM 30.9 °F - 28.0 °F 89% 30.35 in 10.0 mi Calm Calm - N/A   Clear
1:53 AM 30.9 °F - 27.0 °F 85% 30.33 in 10.0 mi Calm Calm - N/A   Clear
2:53 AM 30.9 °F - 27.0 °F 85% 30.33 in 10.0 mi Calm Calm - N/A   Clear
3:53 AM 30.2 °F - 26.6 °F 86% 30.32 in 10.0 mi Calm Calm - N/A   Clear
4:53 AM 30.9 °F - 27.0 °F 85% 30.30 in 6.0 mi Calm Calm - N/A   Clear
5:53 AM 30.9 °F - 26.1 °F 82% 30.30 in 7.0 mi Calm Calm - N/A   Clear
6:53 AM 30.2 °F - 26.6 °F 86% 30.29 in 10.0 mi Calm Calm - N/A   Clear
7:53 AM 28.9 °F - 25.0 °F 85% 30.29 in 8.0 mi Calm Calm - N/A   Clear
8:53 AM 30.0 °F - 27.0 °F 88% 30.31 in 10.0 mi Calm Calm - N/A   Clear
9:53 AM 34.0 °F - 28.9 °F 82% 30.32 in 10.0 mi Calm Calm - N/A   Partly Cloudy
10:53 AM 37.9 °F - 28.9 °F 70% 30.31 in 10.0 mi Calm Calm - N/A   Clear
11:53 AM 44.1 °F 41.5 °F 27.0 °F 51% 30.29 in 10.0 mi SSE 4.6 mph - N/A   Clear
12:53 PM 46.9 °F - 24.1 °F 41% 30.27 in 10.0 mi SSE 4.6 mph - N/A   Clear
1:53 PM 46.9 °F - 24.1 °F 41% 30.26 in 10.0 mi SSE 9.2 mph - N/A   Clear
2:53 PM 46.9 °F - 24.1 °F 41% 30.25 in 10.0 mi South 6.9 mph - N/A   Partly Cloudy
3:53 PM 44.1 °F 40.8 °F 21.9 °F 42% 30.25 in 10.0 mi SSE 5.8 mph - N/A   Clear
4:53 PM 41.0 °F 39.0 °F 21.0 °F 45% 30.24 in 10.0 mi SSE 3.5 mph - N/A   Clear
5:53 PM 37.9 °F 33.5 °F 19.9 °F 48% 30.24 in 10.0 mi SSE 5.8 mph - N/A   Clear
6:53 PM 39.0 °F 33.4 °F 19.0 °F 45% 30.23 in 10.0 mi SE 8.1 mph - N/A   Clear
7:53 PM 39.2 °F 32.5 °F 17.6 °F 42% 30.23 in 10.0 mi SE 10.4 mph - N/A   Clear
8:53 PM 33.1 °F - 19.0 °F 56% 30.21 in 10.0 mi Calm Calm - N/A   Clear
9:53 PM 34.0 °F 28.8 °F 18.0 °F 52% 30.21 in 10.0 mi SE 5.8 mph - N/A   Clear
10:53 PM 37.9 °F 34.4 °F 19.0 °F 47% 30.20 in 10.0 mi ESE 4.6 mph - N/A   Clear
11:53 PM 32.0 °F 27.5 °F 19.0 °F 59% 30.20 in 10.0 mi SE 4.6 mph - N/A   Clear